Temp
21 21 22 23 25 26 28 30 30 29 28 28 26 24 22 20 21 17 14 14 14 17 17 17 17 17 18 18 18 18 18 18 18 18 18 18 18 18 18 18 18 18 17 17 17 17 17 16 17
22 22 23 24 25 27 29 30 29 27 27 26 27 25 23 20 18 15 15 14 14 16 16 17 17 17 17 17 17 17 18 18 18 18 18 18 18 18 17 17 17 17 17 17 17 17 17 16 17
21 22 23 26 27 27 27 29 28 26 26 27 26 22 21 19 17 15 14 14 14 16 17 17 17 17 17 17 17 17 17 17 17 17 18 17 17 17 17 17 17 17 17 17 17 17 16 16 16
22 24 24 25 27 27 28 28 27 27 26 26 24 20 17 16 16 15 14 14 15 16 18 17 17 18 18 18 18 18 17 17 17 17 17 17 17 17 17 16 16 16 16 16 17 17 17 16 16
23 24 26 26 28 27 27 27 27 27 27 26 24 20 17 15 14 13 14 15 17 17 17 18 18 18 18 18 17 17 17 17 17 16 16 16 16 16 16 16 16 16 16 16 16 16 16 17 16
24 26 26 27 28 27 27 26 27 27 26 25 22 20 18 16 14 13 15 17 17 17 17 17 17 17 17 17 17 17 17 17 17 17 16 16 16 16 16 16 16 16 16 16 16 16 16 16 16
25 26 26 28 27 26 26 26 26 26 26 25 24 21 17 16 15 13 15 16 16 17 17 17 17 17 16 16 16 16 16 16 16 16 17 17 16 15 16 16 15 15 15 15 16 15 16 16 16
24 26 26 27 28 26 25 25 24 25 23 22 21 22 18 16 15 14 14 14 15 16 16 16 17 17 17 17 16 16 16 16 16 16 16 16 16 16 15 15 15 16 15 15 15 16 15 15 15
24 24 26 27 27 25 25 25 24 23 22 20 18 17 17 15 15 15 15 14 12 12 15 16 16 16 16 16 16 16 16 16 16 16 16 16 16 16 16 16 16 15 15 15 15 15 15 15 15
25 25 25 25 26 25 24 24 24 23 22 20 17 16 15 15 16 16 15 13 12 11 11 14 15 16 16 16 15 16 15 15 15 15 16 16 16 16 16 16 16 16 16 16 15 15 15 15 15
24 24 24 25 22 23 24 23 24 24 23 21 19 16 16 15 15 15 14 13 11 10 10 13 14 14 15 15 15 15 14 14 14 14 14 15 15 16 16 16 16 16 16 16 16 15 15 15 15
23 24 23 23 22 21 23 24 23 21 17 18 17 16 15 15 14 13 13 12 10 9 9 12 13 14 14 14 14 14 14 13 13 13 13 13 14 14 14 15 15 16 15 15 14 15 15 14 15
23 24 23 23 22 22 22 22 23 18 16 16 15 15 15 15 14 12 11 10 9 8 9 11 12 13 13 13 13 13 13 12 12 11 10 10 11 12 12 13 13 14 14 14 13 13 13 14 14
22 22 22 23 23 23 22 22 22 17 16 15 15 15 14 13 12 12 10 9 8 8 9 10 11 12 12 12 12 12 11 11 11 10 8 7 7 7 8 9 10 12 12 12 11 12 13 13 14
21 21 23 24 23 23 21 21 22 16 16 16 16 15 14 12 12 9 8 8 7 7 8 9 9 10 10 10 10 10 9 9 9 7 6 6 5 4 4 5 5 6 8 9 10 11 12 13 13
21 22 21 24 23 21 21 20 18 16 16 16 16 15 13 12 10 8 7 7 7 6 6 6 7 7 8 8 8 7 6 7 5 5 5 3 3 3 3 3 3 2 3 5 7 8 9 11 12
22 21 23 23 23 22 21 21 19 17 17 17 17 15 13 12 10 8 8 7 7 6 5 5 5 6 7 6 6 5 5 5 4 4 2 2 2 2 1 0 0 1 2 3 4 5 6 7 10
21 22 22 23 23 22 21 21 19 18 17 18 17 16 13 12 11 8 7 6 6 5 5 4 4 4 4 3 4 4 3 3 2 1 1 0 0 -1 -2 -2 -2 -1 -1 0 2 3 4 5 6
20 20 20 22 23 23 21 21 22 20 18 18 17 15 14 12 10 8 7 6 5 5 4 4 3 3 3 3 3 3 4 2 2 1 1 0 -2 -2 -3 -3 -2 -2 -2 -1 -0 0 1 5 5
19 19 20 21 22 21 20 20 22 22 19 18 17 16 15 12 11 8 7 6 5 4 3 3 3 3 2 2 1 1 2 1 0 1 1 -1 -3 -4 -3 -3 -3 -2 -2 -1 -1 -0 0 1 4
19 19 19 20 20 20 20 20 20 22 19 18 17 16 14 12 10 9 7 6 5 4 3 3 2 2 2 1 1 3 3 2 1 1 -1 -3 -4 -4 -4 -4 -3 -3 -2 -2 -1 -1 0 1 1
18 20 19 19 18 17 20 18 20 20 19 17 14 13 12 10 8 8 7 6 5 3 2 2 2 2 1 0 1 1 1 0 -1 -2 -2 -4 -5 -5 -5 -5 -4 -4 -3 -2 -2 -1 -0 0 1
18 19 17 18 17 17 18 18 19 21 18 16 14 13 11 9 8 7 6 5 4 3 2 1 1 1 0 -1 -0 -1 -2 -1 -1 -2 -4 -3 -4 -6 -6 -6 -4 -3 -2 -2 -2 -1 -1 1 1
18 17 17 18 17 15 18 19 19 19 18 17 15 12 10 8 7 6 5 4 3 1 2 1 0 0 -1 -1 -2 -2 -1 -2 -1 -4 -4 -3 -5 -6 -6 -6 -4 -4 -3 -2 -2 -1 -0 0 2
17 16 14 15 16 15 19 17 18 16 16 16 13 11 9 8 7 6 3 2 2 1 2 0 -1 -1 -1 -1 -2 -2 -3 -2 -3 -4 -4 -2 -4 -6 -7 -6 -5 -4 -3 -2 -1 -1 0 2 2
17 17 14 13 13 15 17 16 16 15 14 15 12 10 9 7 6 4 3 1 1 2 2 1 -1 -0 -0 -0 -3 -3 -1 -3 -4 -4 -4 -2 -5 -7 -7 -7 -6 -4 -3 -2 -2 -1 0 2 3
16 15 17 14 15 13 14 16 15 14 12 12 10 8 9 7 5 3 2 0 -0 1 1 1 1 1 1 -0 -3 -3 -1 -1 -5 -5 -3 -2 -4 -6 -7 -7 -5 -5 -3 -2 -1 -1 1 2 3
16 17 14 14 11 11 14 14 13 10 12 11 4 8 7 7 5 3 2 -0 -1 1 1 0 0 -0 -0 -1 -2 -2 -1 -3 -4 -4 -2 -3 -3 -5 -6 -7 -6 -5 -5 -5 -4 -2 -0 1 2
16 14 15 14 14 12 11 12 14 7 6 8 3 7 6 5 4 1 1 -0 -1 0 0 -0 -1 -1 -1 -2 -2 -2 -3 -3 -4 -3 -2 -3 -3 -5 -5 -7 -7 -6 -6 -5 -5 -4 -3 -2 -1
16 15 14 12 12 12 11 10 14 14 11 11 7 6 5 3 2 1 -0 -1 -0 -1 -1 -1 -1 -2 -2 -2 -3 -3 -4 -4 -4 -3 -3 -3 -3 -4 -5 -5 -7 -5 -5 -5 -6 -6 -6 -4 -4
Height
1497 1495 1498 1497 1499 1485 1476 1462 1454 1461 1470 1477 1479 1482 1497 1495 1495 1513 1517 1519 1518 1517 1517 1518 1519 1521 1521 1521 1521 1521 1521 1521 1521 1521 1521 1521 1521 1522 1523 1524 1524 1525 1525 1526 1525 1524 1525 1526 1525
1497 1495 1497 1494 1494 1485 1468 1458 1463 1469 1476 1483 1484 1487 1493 1502 1507 1514 1519 1521 1517 1516 1517 1519 1520 1521 1522 1521 1521 1522 1522 1522 1521 1521 1521 1521 1521 1520 1521 1522 1523 1524 1524 1525 1524 1524 1524 1524 1524
1497 1497 1498 1486 1479 1480 1476 1465 1468 1477 1480 1483 1487 1493 1503 1516 1517 1521 1521 1518 1517 1517 1518 1520 1522 1522 1522 1522 1522 1522 1522 1522 1522 1521 1521 1520 1520 1520 1520 1520 1521 1523 1523 1523 1523 1523 1523 1523 1523
1500 1497 1496 1487 1476 1473 1471 1473 1476 1482 1487 1487 1489 1504 1514 1518 1518 1521 1521 1519 1517 1519 1519 1521 1522 1522 1522 1523 1522 1522 1522 1521 1521 1521 1521 1520 1519 1519 1519 1519 1520 1521 1522 1522 1522 1522 1522 1521 1521
1500 1496 1488 1482 1470 1471 1475 1480 1480 1481 1486 1488 1491 1508 1514 1519 1520 1520 1518 1518 1518 1520 1520 1521 1522 1522 1522 1522 1522 1522 1521 1520 1519 1519 1519 1519 1519 1518 1518 1518 1518 1519 1519 1520 1520 1521 1519 1519 1519
1497 1490 1488 1477 1463 1469 1478 1484 1480 1482 1488 1493 1501 1508 1516 1519 1520 1518 1519 1519 1520 1521 1522 1522 1522 1522 1522 1522 1521 1521 1520 1520 1519 1518 1518 1518 1517 1517 1517 1517 1517 1517 1517 1517 1517 1517 1517 1516 1516
1495 1487 1483 1470 1470 1476 1480 1486 1486 1488 1491 1498 1500 1506 1518 1520 1521 1520 1520 1520 1521 1521 1522 1522 1522 1521 1521 1521 1520 1520 1519 1518 1518 1517 1516 1516 1515 1514 1514 1514 1514 1515 1515 1514 1514 1514 1514 1514 1514
1495 1490 1484 1471 1468 1477 1482 1488 1493 1493 1500 1502 1503 1504 1517 1520 1521 1522 1522 1522 1521 1521 1521 1521 1520 1520 1519 1519 1519 1518 1517 1517 1516 1515 1514 1513 1512 1512 1512 1512 1511 1510 1510 1510 1511 1511 1511 1511 1511
1494 1492 1482 1472 1471 1483 1487 1490 1496 1498 1500 1506 1511 1512 1517 1521 1522 1524 1526 1524 1524 1521 1520 1519 1519 1518 1518 1518 1517 1516 1515 1515 1513 1512 1511 1510 1509 1508 1508 1508 1508 1508 1507 1506 1506 1507 1507 1507 1507
1492 1487 1484 1483 1480 1482 1490 1492 1495 1499 1502 1508 1513 1515 1517 1520 1522 1524 1525 1525 1525 1522 1519 1517 1517 1517 1517 1516 1515 1514 1513 1512 1511 1509 1508 1507 1505 1505 1504 1504 1503 1502 1502 1502 1502 1502 1502 1502 1501
1491 1489 1489 1486 1491 1491 1491 1495 1494 1496 1498 1502 1509 1515 1517 1521 1522 1523 1525 1525 1525 1523 1519 1516 1516 1515 1514 1513 1512 1511 1510 1509 1508 1506 1504 1503 1502 1500 1499 1498 1498 1497 1497 1497 1497 1496 1496 1495 1496
1495 1490 1492 1491 1493 1495 1495 1494 1496 1500 1509 1510 1511 1515 1517 1522 1524 1524 1525 1525 1524 1522 1518 1517 1515 1514 1513 1512 1510 1509 1506 1505 1503 1502 1500 1498 1496 1495 1494 1492 1492 1491 1491 1491 1491 1491 1491 1490 1489
1494 1491 1493 1493 1494 1495 1496 1496 1497 1505 1508 1511 1513 1516 1518 1522 1524 1525 1526 1525 1523 1521 1518 1516 1515 1513 1512 1510 1509 1506 1504 1502 1500 1497 1496 1493 1491 1488 1487 1486 1485 1485 1485 1484 1485 1485 1485 1485 1484
1496 1495 1492 1491 1490 1491 1494 1494 1495 1504 1507 1510 1514 1515 1518 1522 1523 1524 1523 1524 1522 1520 1517 1515 1514 1512 1510 1509 1506 1504 1501 1499 1497 1495 1493 1490 1487 1484 1481 1479 1478 1478 1478 1476 1476 1476 1477 1477 1478
1497 1497 1490 1483 1486 1489 1493 1493 1488 1498 1505 1509 1512 1515 1519 1521 1523 1522 1522 1522 1521 1520 1517 1514 1512 1510 1509 1507 1504 1502 1499 1497 1494 1492 1490 1487 1484 1481 1477 1473 1472 1471 1470 1468 1467 1468 1469 1470 1471
1491 1490 1491 1473 1480 1488 1493 1492 1491 1496 1501 1506 1509 1514 1518 1521 1522 1522 1521 1521 1520 1518 1517 1514 1512 1510 1508 1505 1502 1500 1498 1495 1492 1489 1486 1484 1480 1476 1472 1469 1466 1465 1462 1461 1461 1461 1461 1462 1463
1480 1487 1480 1478 1479 1481 1487 1486 1488 1495 1499 1502 1506 1511 1516 1520 1522 1522 1522 1521 1520 1517 1516 1515 1512 1510 1507 1505 1502 1500 1497 1493 1490 1487 1483 1480 1475 1471 1468 1464 1460 1458 1456 1455 1454 1454 1455 1454 1455
1483 1479 1476 1476 1476 1480 1481 1482 1486 1491 1496 1497 1501 1508 1514 1518 1520 1522 1522 1520 1519 1517 1515 1515 1513 1510 1507 1504 1501 1498 1495 1491 1488 1485 1481 1476 1471 1467 1462 1459 1455 1452 1449 1448 1449 1447 1446 1446 1448
1485 1487 1484 1477 1472 1475 1478 1481 1478 1482 1489 1493 1498 1505 1511 1516 1519 1521 1521 1520 1519 1516 1515 1514 1512 1509 1505 1502 1498 1495 1492 1489 1486 1481 1476 1472 1467 1462 1457 1453 1450 1448 1445 1443 1442 1441 1440 1438 1441
1490 1489 1486 1477 1472 1476 1484 1482 1474 1471 1479 1486 1493 1499 1506 1512 1517 1520 1521 1520 1518 1516 1515 1514 1511 1509 1506 1502 1500 1496 1492 1489 1484 1479 1473 1467 1462 1458 1454 1450 1447 1444 1441 1439 1437 1436 1433 1432 1437
1488 1488 1482 1482 1477 1476 1479 1478 1470 1465 1473 1484 1489 1495 1503 1510 1515 1518 1520 1520 1518 1517 1515 1513 1511 1509 1506 1502 1499 1494 1491 1486 1480 1475 1469 1464 1460 1455 1450 1447 1444 1440 1436 1434 1432 1432 1431 1426 1428
1486 1480 1483 1484 1490 1493 1475 1484 1466 1463 1471 1482 1492 1498 1505 1510 1514 1517 1519 1518 1517 1516 1514 1512 1510 1509 1505 1502 1497 1492 1488 1484 1480 1475 1469 1462 1457 1452 1448 1443 1439 1434 1430 1427 1426 1425 1424 1423 1421
1483 1482 1488 1487 1488 1485 1482 1482 1463 1450 1469 1482 1491 1499 1504 1509 1513 1516 1517 1516 1516 1513 1511 1510 1509 1509 1505 1502 1496 1491 1488 1484 1480 1474 1467 1459 1453 1450 1445 1439 1433 1429 1425 1421 1419 1417 1416 1416 1416
1486 1488 1486 1481 1481 1492 1474 1467 1464 1461 1465 1477 1489 1499 1504 1507 1512 1515 1516 1515 1515 1511 1509 1509 1507 1506 1504 1499 1495 1492 1488 1483 1478 1473 1464 1457 1451 1446 1441 1434 1428 1424 1419 1415 1412 1410 1409 1408 1407
1486 1491 1496 1488 1481 1483 1459 1471 1465 1469 1473 1478 1488 1497 1504 1506 1510 1513 1513 1513 1512 1508 1507 1507 1506 1504 1501 1497 1494 1491 1487 1483 1478 1471 1464 1455 1449 1444 1438 1431 1424 1418 1414 1409 1406 1403 1401 1400 1399
1477 1481 1494 1500 1498 1485 1466 1477 1472 1477 1480 1482 1489 1496 1502 1506 1509 1509 1511 1512 1510 1507 1506 1505 1503 1500 1498 1496 1494 1491 1487 1482 1478 1472 1465 1457 1451 1445 1439 1431 1423 1417 1410 1405 1401 1398 1395 1393 1392
1480 1486 1481 1491 1489 1495 1485 1472 1475 1482 1489 1491 1494 1496 1500 1504 1506 1506 1506 1509 1507 1506 1505 1503 1501 1499 1497 1495 1494 1491 1486 1481 1478 1472 1465 1458 1453 1447 1439 1431 1423 1416 1409 1403 1398 1394 1391 1387 1387
1482 1479 1492 1490 1507 1501 1480 1478 1480 1489 1486 1491 1496 1497 1500 1502 1503 1503 1503 1504 1503 1504 1503 1502 1500 1498 1496 1495 1493 1490 1486 1482 1478 1472 1466 1460 1455 1449 1441 1434 1426 1418 1411 1405 1398 1393 1389 1385 1382
1478 1483 1482 1484 1487 1494 1494 1483 1476 1489 1490 1489 1493 1493 1494 1496 1499 1500 1501 1501 1501 1501 1502 1501 1499 1498 1497 1495 1492 1490 1487 1483 1479 1473 1467 1462 1456 1451 1446 1436 1430 1423 1414 1406 1400 1393 1390 1386 1382
1472 1477 1479 1490 1491 1487 1492 1485 1476 1479 1484 1484 1488 1489 1491 1494 1493 1497 1497 1498 1499 1500 1500 1500 1499 1498 1497 1495 1492 1491 1488 1485 1480 1474 1469 1464 1458 1454 1448 1442 1433 1426 1420 1412 1403 1398 1394 1388 1382
Wind_Speed
9 5 11 11 5 7 16 11 10 10 9 12 24 19 22 26 11 7 18 17 9 3 5 5 6 6 6 7 7 6 6 7 7 7 6 7 7 8 10 10 9 8 8 8 7 8 10 12 12
9 6 9 9 8 11 4 10 12 16 16 9 7 20 19 19 17 11 6 17 10 10 9 9 9 8 8 9 9 9 8 8 8 8 9 10 10 10 10 11 12 11 10 10 10 11 11 14 13
14 9 11 6 10 11 7 11 16 16 9 5 3 20 11 9 16 8 11 11 10 11 10 9 9 9 11 11 12 12 11 11 10 10 10 11 12 12 12 12 14 14 14 13 12 13 13 14 15
10 10 11 8 17 12 11 9 12 9 5 3 18 12 10 13 7 10 11 9 8 9 9 9 9 11 12 13 14 14 13 13 12 12 12 13 14 14 14 15 15 16 17 16 15 15 15 15 16
10 11 11 16 14 12 9 5 2 9 9 8 17 10 11 12 14 11 10 9 9 9 8 8 9 10 11 13 13 14 14 14 14 13 12 13 14 16 17 17 18 18 19 19 19 17 16 16 16
12 18 11 14 6 14 8 6 1 10 6 11 19 14 10 11 10 9 7 7 7 7 7 7 7 8 10 10 12 13 15 16 16 16 16 14 14 15 17 19 20 20 21 21 22 20 19 18 18
13 11 15 18 11 9 11 2 4 6 6 15 8 9 12 10 9 8 6 5 5 5 5 6 6 7 9 11 12 13 14 16 18 17 15 15 14 14 16 19 20 22 23 23 24 23 22 21 21
9 10 15 15 7 13 14 8 5 5 12 6 15 4 11 12 9 8 7 8 7 5 4 5 7 9 10 11 12 14 15 16 16 18 18 16 15 15 16 17 19 23 24 24 25 25 25 25 24
11 8 12 11 6 16 9 9 2 3 12 16 10 15 16 12 9 6 3 7 10 10 9 8 8 10 11 13 14 15 16 16 16 16 18 16 17 16 16 16 17 20 22 25 25 27 28 28 28
7 10 9 11 11 8 7 6 10 6 13 12 12 12 11 10 7 4 3 4 8 10 12 11 12 12 14 15 17 19 20 20 20 20 21 20 19 18 18 18 19 19 20 23 25 27 30 31 32
9 7 11 8 11 8 1 6 6 8 4 14 15 12 11 8 7 5 5 5 7 8 11 13 15 17 18 20 22 24 25 23 22 22 22 23 24 25 26 27 25 23 22 21 23 24 28 31 35
6 1 4 6 5 5 6 6 3 8 7 10 14 11 10 7 5 5 5 6 8 10 14 15 16 18 20 22 24 25 26 25 25 26 25 25 26 26 26 27 28 28 26 23 20 23 25 29 30
9 5 4 6 4 6 7 9 6 11 10 10 10 10 9 7 6 5 5 5 7 9 14 16 17 18 19 19 20 21 22 23 25 25 24 25 28 29 29 28 28 28 29 27 24 23 24 26 31
11 12 14 14 12 11 8 11 13 13 12 10 9 9 8 6 4 3 4 6 8 9 14 17 18 18 18 18 19 20 20 21 22 24 24 25 27 29 30 31 29 29 28 29 29 29 28 24 29
9 15 16 18 13 6 2 12 18 20 14 12 10 9 8 6 4 4 4 5 8 9 13 15 16 17 18 19 19 19 20 21 22 22 23 25 25 27 28 31 32 29 27 29 31 32 32 30 26
15 15 15 20 14 8 4 6 17 19 17 14 14 12 8 6 4 4 5 6 8 9 12 14 15 17 19 19 20 21 20 22 21 24 25 23 24 26 28 31 29 26 27 29 29 31 31 32 29
14 12 14 10 13 8 10 10 17 17 17 16 14 13 8 6 2 4 5 6 7 8 10 12 15 17 18 18 19 19 21 22 24 25 25 24 29 31 30 31 33 32 31 30 27 27 25 29 31
12 6 10 13 10 9 9 10 14 19 17 14 15 12 7 5 4 3 5 6 7 8 10 11 13 16 18 17 20 19 21 24 23 24 23 27 29 29 27 30 32 33 34 34 31 26 29 25 28
9 15 16 15 16 18 11 13 15 21 20 14 14 10 9 6 4 3 4 5 6 8 10 11 13 16 18 19 22 23 26 25 26 25 26 31 26 30 32 29 27 27 26 27 27 29 31 32 21
12 16 17 16 15 5 11 16 14 12 20 17 15 14 10 8 6 3 2 4 7 8 10 11 13 15 17 19 17 20 22 22 24 27 29 26 27 28 26 25 28 26 25 26 27 27 30 29 29
12 16 15 13 13 15 15 20 20 18 21 15 8 8 10 7 4 3 2 4 6 8 10 11 12 14 15 19 17 21 22 26 28 32 33 31 27 27 25 24 26 27 24 24 25 26 26 29 27
11 7 8 10 13 13 15 14 15 11 16 12 12 10 10 9 5 3 1 3 5 7 8 9 12 12 13 17 20 22 25 28 29 31 31 29 27 26 27 27 26 26 25 27 27 25 24 26 29
8 8 8 13 16 16 16 12 14 7 16 15 15 13 12 9 6 4 2 3 4 6 7 9 10 11 14 14 20 21 22 23 26 30 31 34 33 29 31 30 31 27 26 25 25 26 26 28 30
9 10 16 15 13 12 17 16 11 5 9 14 16 16 13 11 8 5 3 3 3 6 7 8 9 9 12 13 18 19 21 23 27 30 33 37 37 34 34 35 33 30 27 25 25 24 26 28 29
9 10 7 6 7 10 5 5 3 12 10 14 16 16 13 10 8 6 3 2 3 7 8 7 8 9 11 13 16 19 20 22 24 28 32 36 39 38 36 36 34 31 29 25 25 26 27 26 29
10 7 4 7 7 11 18 5 3 10 9 13 17 15 13 10 7 4 3 1 3 7 7 7 7 9 11 13 14 19 19 21 22 24 28 33 34 36 33 34 32 30 29 27 25 22 23 23 23
6 5 4 6 9 7 8 13 6 10 7 8 12 11 10 10 9 8 4 1 7 7 7 7 9 10 11 12 12 16 20 20 21 21 26 30 31 34 32 34 32 29 26 25 23 19 15 15 22
11 9 4 3 3 8 7 12 3 0 6 6 1 10 11 10 9 10 5 5 8 5 6 7 8 10 11 12 12 16 18 20 20 21 24 25 28 31 30 32 32 28 24 22 19 15 10 8 5
10 11 9 11 11 8 8 5 7 7 5 6 12 16 19 16 16 9 7 5 6 6 5 6 7 8 10 13 14 17 18 20 21 22 24 24 25 29 30 31 34 32 28 24 23 18 15 12 13
10 9 11 4 10 8 5 8 3 5 11 9 14 19 22 14 16 14 9 6 5 4 5 5 6 8 9 12 15 17 18 19 21 23 23 23 25 25 27 28 33 34 34 31 29 26 25 23 26
Wind_Direction
314 325 306 284 242 230 253 246 78 96 87 36 54 74 72 46 38 78 78 67 54 100 56 66 42 23 11 358 347 336 321 310 301 297 284 270 254 259 266 264 264 269 276 270 272 262 259 256 261
330 339 284 272 250 257 290 85 91 78 81 95 90 97 69 60 61 76 98 77 37 76 69 55 39 23 15 6 355 345 333 319 305 295 288 277 266 255 251 253 256 260 265 269 266 265 265 261 260
333 335 289 232 237 261 42 30 82 77 93 120 106 56 45 7 52 85 66 86 74 66 64 52 37 25 16 9 1 352 340 329 316 305 285 275 271 261 250 248 252 257 258 263 266 264 265 264 265
300 260 244 254 253 59 48 50 78 111 105 16 96 81 84 32 79 103 97 82 84 64 52 42 24 12 2 356 350 342 336 331 326 311 301 286 274 267 260 251 248 255 257 258 263 264 265 265 265
265 272 259 263 249 86 72 21 181 154 136 74 99 89 97 89 99 94 91 92 73 63 45 31 15 2 354 349 345 343 340 336 330 326 317 295 286 280 273 263 256 253 257 258 261 262 263 264 264
281 239 269 259 187 103 82 359 147 66 87 85 95 104 98 116 104 96 91 76 64 50 37 23 13 359 348 342 337 336 335 334 332 325 321 318 296 283 280 276 270 263 259 258 260 260 263 262 263
263 286 278 288 122 140 123 116 67 113 163 43 133 111 130 126 112 101 80 63 45 30 19 13 7 359 352 349 346 338 333 325 319 317 319 320 314 295 284 280 276 273 268 262 260 260 260 260 260
293 297 281 282 274 111 115 114 88 353 71 48 14 102 152 143 134 101 47 23 10 5 359 356 354 354 352 343 345 337 331 322 318 314 308 305 303 306 296 288 282 277 267 266 265 259 258 259 260
285 272 259 303 51 96 121 135 123 47 107 65 71 81 113 137 131 122 91 25 4 348 336 333 341 346 344 334 333 325 319 313 309 307 304 303 297 292 291 292 289 283 280 276 267 264 259 258 260
277 281 23 12 34 79 100 326 137 188 131 127 102 103 116 127 136 127 77 22 15 1 338 334 333 333 332 329 327 321 321 313 310 307 294 297 293 293 290 290 293 296 287 284 274 270 265 259 258
318 316 8 49 29 19 115 205 207 229 199 146 154 135 125 123 118 113 77 41 26 6 329 334 335 335 332 332 328 326 323 321 316 306 307 298 293 286 285 285 283 282 284 288 283 277 268 262 261
300 339 341 1 18 347 296 305 220 63 94 83 114 131 125 124 105 79 56 31 19 2 330 337 338 334 331 328 324 322 321 320 316 316 312 307 298 293 288 282 278 276 272 271 277 284 273 266 264
271 330 324 292 269 257 265 264 253 116 118 119 122 127 122 121 104 75 47 15 14 3 328 339 338 333 328 324 320 319 319 318 317 317 315 309 306 301 296 289 281 274 271 268 256 259 277 278 262
337 298 283 274 255 256 233 257 232 148 149 144 148 142 137 134 124 93 30 11 4 358 333 342 337 334 333 332 330 328 327 324 324 323 322 318 312 309 305 299 290 279 272 267 263 256 248 254 272
287 289 283 251 228 233 202 252 240 140 159 168 173 157 153 139 119 77 34 18 4 1 336 344 340 335 338 340 341 340 338 334 332 329 317 313 313 312 303 298 298 296 284 271 264 261 257 251 257
264 263 268 273 162 155 189 300 114 154 168 180 178 170 170 149 113 59 33 18 15 356 355 349 345 343 346 348 349 347 341 338 331 320 319 318 305 295 295 296 292 291 283 280 274 269 263 255 246
242 239 277 201 173 164 187 279 147 169 181 184 183 166 174 146 121 51 38 26 26 356 359 359 349 344 349 352 346 347 338 336 330 329 324 315 305 302 297 292 292 285 280 278 271 269 270 269 255
320 303 309 302 183 208 253 257 171 179 188 198 181 169 155 189 132 48 27 17 30 2 8 2 350 347 356 349 342 345 341 338 340 328 330 311 310 313 308 302 299 295 288 280 275 271 260 261 267
312 296 295 284 289 301 314 297 272 187 194 197 177 168 193 158 122 81 35 13 31 5 7 4 352 356 354 347 355 345 342 345 332 336 314 311 312 305 308 317 316 315 304 296 292 278 273 257 256
294 283 276 275 268 276 287 272 279 264 180 194 183 187 177 152 164 109 40 22 23 8 0 6 355 360 349 346 352 338 348 340 337 332 338 335 322 322 318 321 322 316 310 302 297 293 293 274 257
263 261 269 286 318 304 283 272 254 259 162 181 157 116 132 147 156 126 61 29 19 8 358 6 355 4 342 346 339 346 353 354 350 349 348 341 335 331 334 312 306 301 294 294 293 290 284 286 277
255 326 331 295 289 280 293 286 288 160 162 151 143 141 152 145 147 140 97 37 22 7 351 3 3 2 349 347 340 354 358 357 351 347 347 349 345 346 335 328 318 308 303 287 279 275 279 278 279
268 338 290 283 279 283 278 269 273 172 162 164 157 157 144 140 149 152 118 64 20 356 351 3 12 360 344 356 340 350 356 357 353 352 352 356 355 351 342 337 333 326 317 305 295 290 275 266 267
287 289 273 254 249 255 263 261 267 115 71 142 143 150 152 151 153 150 113 65 20 328 350 17 13 0 346 355 345 346 353 354 357 354 358 359 357 355 343 342 340 334 326 315 306 293 284 273 269
232 258 270 263 232 235 279 311 339 90 77 130 141 151 156 151 157 160 162 52 357 311 352 11 5 358 351 358 352 342 351 355 357 358 1 2 359 355 350 346 343 339 331 321 311 300 290 281 275
225 255 291 290 309 306 329 293 32 94 83 111 136 146 149 152 156 195 239 54 297 319 338 346 1 351 357 1 358 340 351 356 354 359 5 7 3 358 351 349 348 344 337 330 321 312 303 290 292
349 212 293 303 299 282 257 263 123 117 100 117 138 148 161 166 184 217 218 147 276 318 332 346 352 359 359 2 1 349 355 358 355 1 9 9 9 4 1 359 356 354 346 337 328 316 302 295 276
257 291 284 244 244 263 281 311 347 73 143 152 189 163 185 178 182 230 220 212 281 310 333 347 354 5 9 10 8 5 3 3 4 9 11 11 14 14 14 14 10 6 6 7 359 337 323 332 300
221 228 240 238 238 269 290 259 125 177 208 164 201 203 198 192 197 216 242 221 249 302 323 344 359 8 15 20 19 15 14 14 15 19 20 16 15 20 18 31 27 23 21 27 27 26 24 32 33
257 297 299 282 276 287 315 274 345 83 186 204 209 227 217 215 224 214 239 223 251 271 320 342 1 12 8 15 16 14 15 17 20 24 24 21 26 24 22 26 39 34 30 30 42 42 43 46 49